Flag for U.S.A. Weather past 2 weeks in Rapid City, South Dakota, U.S.A.

Now
79 °F

Sunny.


Feels Like: 79 °F
Forecast: 52 / 78 °F
Wind: 12 mph from Southeast

Location: Ellsworth Air Force Base

Current Time: Sep 17, 2014 at 4:42:06 PM

Latest Report: Sep 17, 2014 at 3:58 PM


Visibility: 10 mi

Pressure: 29.88 "Hg

Humidity: 34%

Dew point: 49 °F

Location of Rapid CityLocation

Historic Weather in Rapid City — Graph

°F

Rapid City temperature yesterday

Maximum temperature yesterday: 80 °F (at 4:58 PM)
Minimum temperature yesterday: 44 °F (at 4:58 AM)
Average temperature yesterday: 63 °F

Past Weeks' High & Low Weather Summary

 TemperatureHumidityPressure
High94 °F (Sep 3, 3:58 PM)100% (Sep 9, 6:58 PM)30.62 "Hg (Sep 9, 6:58 PM)
Low31 °F (Sep 12, 6:58 AM)12% (Sep 8, 12:58 PM)29.49 "Hg (Sep 3, 4:58 PM)
Average56 °F63%30.07 "Hg
* Reported Sep 2 2:58 PM — Sep 17 2:58 PM, Rapid City, Weather by CustomWeather, © 2014

Note: Actual official high and low records may vary slightly from our data, if they occured in-between our weather recording intervals... More about our weather records

Advertising

Rapid City weather history for previous 24 hours

 ConditionsComfort  
Time TempWeatherWind HumidityBarometerVisibility
2:58 PM
Sep 17
79 °FSunny.10 mph33%29.88 "Hg10 mi
1:58 PM78 °FSunny.9 mph36%29.90 "Hg10 mi
12:58 PM76 °FPassing clouds.9 mph41%29.92 "Hg10 mi
11:58 AM72 °FMostly cloudy.6 mph46%29.93 "Hg10 mi
10:58 AM70 °FPartly sunny.3 mph48%29.93 "Hg10 mi
9:58 AM69 °FSunny.1 mph46%29.94 "Hg10 mi
8:58 AM66 °FPartly sunny.6 mph46%29.93 "Hg10 mi
7:58 AM60 °FSunny.2 mph60%29.93 "Hg10 mi
6:58 AM58 °FClear.7 mph52%29.92 "Hg10 mi
5:58 AM56 °FClear.5 mph54%29.90 "Hg10 mi
4:58 AM55 °FClear.6 mph56%29.90 "Hg10 mi
3:58 AM53 °FClear.7 mph66%29.88 "Hg10 mi
2:58 AM53 °FPassing clouds.10 mph73%29.88 "Hg10 mi
1:58 AM55 °FClear.5 mph72%29.90 "Hg10 mi
12:58 AM55 °FPassing clouds.7 mph72%29.90 "Hg10 mi
11:58 PM
Sep 16
58 °FClear.8 mph70%29.90 "Hg10 mi
10:58 PM57 °FClear.5 mph71%29.92 "Hg10 mi
9:58 PM58 °FClear.2 mph69%29.93 "Hg10 mi
8:58 PM65 °FClear.3 mph57%29.93 "Hg10 mi
7:58 PM63 °FSunny.5 mph62%29.93 "Hg10 mi
6:58 PM73 °FSunny.2 mph42%29.93 "Hg8 mi
5:58 PM78 °FSunny.1 mph35%29.93 "Hg10 mi
4:58 PM80 °FSunny.2 mph31%29.92 "Hg10 mi
Weather by CustomWeather, © 2014

See weather overviewHow to use our weather pages